TimeMDT,TemperatureF,Dew PointF,Humidity,Sea Level PressureIn,VisibilityMPH,Wind Direction,Wind SpeedMPH,Gust SpeedMPH,PrecipitationIn,Events,Conditions,WindDirDegrees,DateUTC
12:53 AM,34.0,8.1,34,29.92,10.0,South,5.8,-,N/A,,Clear,170,2012-10-09 06:53:00
2:53 AM,32.0,10.0,40,29.92,10.0,South,5.8,-,N/A,,Clear,190,2012-10-09 08:53:00
3:53 AM,30.0,10.9,45,29.92,10.0,South,5.8,-,N/A,,Clear,190,2012-10-09 09:53:00
4:53 AM,32.0,12.0,44,29.92,10.0,South,5.8,-,N/A,,Clear,180,2012-10-09 10:53:00
5:53 AM,32.0,14.0,48,29.93,10.0,South,8.1,-,N/A,,Overcast,170,2012-10-09 11:53:00
6:53 AM,30.0,14.0,51,29.98,10.0,South,10.4,-,N/A,,Clear,170,2012-10-09 12:53:00
7:53 AM,33.1,15.1,48,30.03,10.0,South,6.9,-,N/A,,Scattered Clouds,170,2012-10-09 13:53:00
8:53 AM,41.0,17.1,38,30.01,10.0,South,4.6,-,N/A,,Scattered Clouds,170,2012-10-09 14:53:00
9:53 AM,46.0,16.0,30,29.99,10.0,Calm,Calm,-,N/A,,Partly Cloudy,0,2012-10-09 15:53:00
10:53 AM,57.0,17.1,21,29.93,10.0,North,9.2,-,N/A,,Partly Cloudy,10,2012-10-09 16:53:00
11:53 AM,59.0,16.0,19,29.91,10.0,North,13.8,24.2,N/A,,Clear,350,2012-10-09 17:53:00
12:53 PM,61.0,16.0,17,29.89,10.0,North,17.3,26.5,N/A,,Clear,360,2012-10-09 18:53:00
1:53 PM,63.0,16.0,16,29.88,10.0,North,20.7,28.8,N/A,,Clear,360,2012-10-09 19:53:00
2:53 PM,64.0,14.0,14,29.86,10.0,NW,8.1,23.0,N/A,,Clear,310,2012-10-09 20:53:00
3:53 PM,63.0,14.0,15,29.87,10.0,North,11.5,23.0,N/A,,Clear,350,2012-10-09 21:53:00
4:53 PM,63.0,12.0,14,29.87,10.0,North,15.0,-,N/A,,Clear,350,2012-10-09 22:53:00
5:53 PM,59.0,14.0,17,29.90,10.0,North,8.1,-,N/A,,Clear,360,2012-10-09 23:53:00
6:53 PM,55.0,14.0,20,29.94,10.0,North,3.5,-,N/A,,Clear,10,2012-10-10 00:53:00
7:53 PM,45.0,15.1,30,30.02,10.0,SSW,5.8,-,N/A,,Clear,200,2012-10-10 01:53:00
8:53 PM,43.0,16.0,34,30.01,10.0,SSW,8.1,-,N/A,,Clear,210,2012-10-10 02:53:00
9:53 PM,43.0,16.0,34,30.01,10.0,SSW,6.9,-,N/A,,Clear,210,2012-10-10 03:53:00
10:53 PM,39.9,16.0,38,29.98,10.0,SSW,6.9,-,N/A,,Clear,200,2012-10-10 04:53:00
11:53 PM,37.0,16.0,42,29.99,10.0,SSW,9.2,-,N/A,,Clear,210,2012-10-10 05:53:00